Time,TemperatureF,DewpointF,PressureIn,WindDirection,WindDirectionDegrees,WindSpeedMPH,WindSpeedGustMPH,Humidity,HourlyPrecipIn,Conditions,Clouds,dailyrainin,SoftwareType,DateUTC
2013-01-15 00:01:00,37.3,33.7,29.95,WSW,248,2.7,4.3,87,0.00,,,0.00,WUHU216HW,2013-01-15 08:01:00,
2013-01-15 00:06:00,37.1,33.5,29.95,West,270,2.5,5.4,87,0.00,,,0.00,WUHU216HW,2013-01-15 08:06:00,
2013-01-15 00:11:00,37.1,33.2,29.96,NW,315,1.1,5.4,86,0.00,,,0.00,WUHU216HW,2013-01-15 08:11:00,
2013-01-15 00:16:00,37.1,33.5,29.96,NW,315,4.0,4.3,87,0.00,,,0.00,WUHU216HW,2013-01-15 08:16:00,
2013-01-15 00:21:00,37.1,33.5,29.96,NW,315,3.6,5.4,87,0.00,,,0.00,WUHU216HW,2013-01-15 08:21:00,
2013-01-15 00:26:00,37.3,33.7,29.96,NNW,338,1.8,5.4,87,0.00,,,0.00,WUHU216HW,2013-01-15 08:26:00,
2013-01-15 00:31:00,37.1,33.2,29.96,North,0,0.2,3.6,86,0.00,,,0.00,WUHU216HW,2013-01-15 08:31:00,
2013-01-15 00:36:00,37.1,33.5,29.97,North,0,0.4,2.7,87,0.00,,,0.00,WUHU216HW,2013-01-15 08:36:00,
2013-01-15 00:41:00,36.9,33.3,29.96,NNW,338,0.9,2.7,87,0.00,,,0.00,WUHU216HW,2013-01-15 08:41:00,
2013-01-15 00:46:00,37.1,33.5,29.96,NNW,338,5.4,5.4,87,0.00,,,0.00,WUHU216HW,2013-01-15 08:46:00,
2013-01-15 00:51:00,37.1,33.5,29.97,NNW,338,2.7,7.6,87,0.00,,,0.00,WUHU216HW,2013-01-15 08:51:00,
2013-01-15 00:56:00,37.1,33.5,29.97,WNW,293,0.4,7.6,87,0.00,,,0.00,WUHU216HW,2013-01-15 08:56:00,
2013-01-15 01:01:00,36.9,33.3,29.97,NNW,338,1.8,2.7,87,0.00,,,0.00,WUHU216HW,2013-01-15 09:01:00,
2013-01-15 01:06:00,36.9,33.3,29.97,NW,315,1.8,2.5,87,0.00,,,0.00,WUHU216HW,2013-01-15 09:06:00,
2013-01-15 01:11:00,36.9,33.7,29.97,West,270,2.5,4.9,88,0.00,,,0.00,WUHU216HW,2013-01-15 09:11:00,
2013-01-15 01:16:00,37.1,33.5,29.97,NNW,338,2.5,4.9,87,0.00,,,0.00,WUHU216HW,2013-01-15 09:16:00,
2013-01-15 01:21:00,37.1,33.5,29.97,North,0,0.2,2.7,87,0.00,,,0.00,WUHU216HW,2013-01-15 09:21:00,
2013-01-15 01:26:00,37.1,33.5,29.97,NNW,338,0.9,4.5,87,0.00,,,0.00,WUHU216HW,2013-01-15 09:26:00,
2013-01-15 01:31:00,37.1,33.5,29.97,NW,315,1.3,4.5,87,0.00,,,0.00,WUHU216HW,2013-01-15 09:31:00,
2013-01-15 01:36:00,37.1,33.5,29.97,WNW,293,2.5,3.4,87,0.00,,,0.00,WUHU216HW,2013-01-15 09:36:00,
2013-01-15 01:41:00,37.1,33.9,29.97,SW,225,6.0,7.6,88,0.00,,,0.00,WUHU216HW,2013-01-15 09:41:00,
2013-01-15 01:46:00,37.1,33.5,29.97,WSW,248,3.4,7.6,87,0.00,,,0.00,WUHU216HW,2013-01-15 09:46:00,
2013-01-15 01:51:00,37.1,33.5,29.97,WNW,293,3.8,6.0,87,0.00,,,0.00,WUHU216HW,2013-01-15 09:51:00,
2013-01-15 01:56:00,37.1,33.9,29.97,WSW,248,1.3,5.1,88,0.00,,,0.00,WUHU216HW,2013-01-15 09:56:00,
2013-01-15 02:01:00,36.9,33.3,29.98,NNW,338,1.8,5.1,87,0.00,,,0.00,WUHU216HW,2013-01-15 10:01:00,
2013-01-15 02:06:00,36.9,33.3,29.98,NNW,338,0.9,6.0,87,0.00,,,0.00,WUHU216HW,2013-01-15 10:06:00,
2013-01-15 02:11:00,36.9,33.7,29.98,North,0,1.1,6.0,88,0.00,,,0.00,WUHU216HW,2013-01-15 10:11:00,
2013-01-15 02:16:00,36.9,33.7,29.98,West,270,2.5,3.6,88,0.00,,,0.00,WUHU216HW,2013-01-15 10:16:00,
2013-01-15 02:21:00,36.9,33.7,29.99,North,0,0.2,4.7,88,0.00,,,0.00,WUHU216HW,2013-01-15 10:21:00,
2013-01-15 02:26:00,36.9,33.7,29.99,NNW,338,0.7,4.7,88,0.00,,,0.00,WUHU216HW,2013-01-15 10:26:00,
2013-01-15 02:31:00,36.9,33.7,29.99,West,270,1.1,6.9,88,0.00,,,0.00,WUHU216HW,2013-01-15 10:31:00,
2013-01-15 02:36:00,36.9,33.7,29.99,NNW,338,1.8,6.9,88,0.00,,,0.00,WUHU216HW,2013-01-15 10:36:00,
2013-01-15 02:41:00,36.9,33.3,29.99,WSW,248,3.4,6.5,87,0.00,,,0.00,WUHU216HW,2013-01-15 10:41:00,
2013-01-15 02:46:00,36.7,33.1,29.99,NNW,338,0.2,5.4,87,0.00,,,0.00,WUHU216HW,2013-01-15 10:46:00,
2013-01-15 02:51:00,36.5,32.9,29.99,North,0,0.4,3.4,87,0.00,,,0.00,WUHU216HW,2013-01-15 10:51:00,
2013-01-15 02:56:00,36.4,32.8,30.00,East,90,0.4,2.2,87,0.00,,,0.00,WUHU216HW,2013-01-15 10:56:00,
2013-01-15 03:01:00,36.4,32.8,30.00,ESE,113,0.4,1.6,87,0.00,,,0.00,WUHU216HW,2013-01-15 11:01:00,
2013-01-15 03:07:00,36.2,32.6,30.00,WSW,248,1.1,1.3,87,0.00,,,0.00,WUHU216HW,2013-01-15 11:07:00,
2013-01-15 03:12:00,36.2,32.6,30.00,NNW,338,0.4,1.3,87,0.00,,,0.00,WUHU216HW,2013-01-15 11:12:00,
2013-01-15 03:17:00,36.2,33.0,30.00,WNW,293,0.2,2.7,88,0.00,,,0.00,WUHU216HW,2013-01-15 11:17:00,
2013-01-15 03:22:00,36.2,33.0,30.00,North,0,0.0,2.7,88,0.00,,,0.00,WUHU216HW,2013-01-15 11:22:00,
2013-01-15 03:27:00,36.4,33.1,30.00,NW,315,1.1,2.5,88,0.00,,,0.00,WUHU216HW,2013-01-15 11:27:00,
2013-01-15 03:32:00,36.4,33.1,30.01,NE,45,0.4,2.5,88,0.00,,,0.00,WUHU216HW,2013-01-15 11:32:00,
2013-01-15 03:37:00,36.4,33.1,30.01,NW,315,1.8,1.8,88,0.00,,,0.00,WUHU216HW,2013-01-15 11:37:00,
2013-01-15 03:42:00,36.4,33.1,30.01,NNE,23,1.1,4.3,88,0.00,,,0.00,WUHU216HW,2013-01-15 11:42:00,
2013-01-15 03:47:00,36.2,32.6,30.01,East,90,1.1,4.3,87,0.00,,,0.00,WUHU216HW,2013-01-15 11:47:00,
2013-01-15 03:52:00,35.8,32.2,30.01,North,0,1.1,1.8,87,0.00,,,0.00,WUHU216HW,2013-01-15 11:52:00,
2013-01-15 03:57:00,35.5,31.9,30.01,NNW,338,0.7,2.5,87,0.00,,,0.00,WUHU216HW,2013-01-15 11:57:00,
2013-01-15 04:02:00,35.3,32.3,30.00,WNW,293,4.0,5.4,89,0.00,,,0.00,WUHU216HW,2013-01-15 12:02:00,
2013-01-15 04:07:00,35.6,32.4,30.00,North,0,0.0,5.4,88,0.00,,,0.00,WUHU216HW,2013-01-15 12:07:00,
2013-01-15 04:12:00,35.6,32.7,30.00,North,0,0.4,4.0,89,0.00,,,0.00,WUHU216HW,2013-01-15 12:12:00,
2013-01-15 04:17:00,36.0,32.8,30.01,WNW,293,0.7,2.9,88,0.00,,,0.00,WUHU216HW,2013-01-15 12:17:00,
2013-01-15 04:22:00,35.8,32.6,30.01,NW,315,0.9,1.8,88,0.00,,,0.00,WUHU216HW,2013-01-15 12:22:00,
2013-01-15 04:27:00,35.8,32.6,30.01,NW,315,0.4,2.0,88,0.00,,,0.00,WUHU216HW,2013-01-15 12:27:00,
2013-01-15 04:32:00,35.8,32.6,30.01,NW,315,0.7,2.0,88,0.00,,,0.00,WUHU216HW,2013-01-15 12:32:00,
2013-01-15 04:37:00,35.8,32.6,30.01,NNW,338,0.0,3.4,88,0.00,,,0.00,WUHU216HW,2013-01-15 12:37:00,
2013-01-15 04:42:00,35.6,32.4,30.01,NNW,338,2.9,3.4,88,0.00,,,0.00,WUHU216HW,2013-01-15 12:42:00,
2013-01-15 04:47:00,35.6,32.4,30.01,WSW,248,0.9,2.9,88,0.00,,,0.00,WUHU216HW,2013-01-15 12:47:00,
2013-01-15 04:52:00,35.6,32.4,30.01,North,0,1.3,2.9,88,0.00,,,0.00,WUHU216HW,2013-01-15 12:52:00,
2013-01-15 04:57:00,35.5,32.5,30.01,NW,315,0.2,3.4,89,0.00,,,0.00,WUHU216HW,2013-01-15 12:57:00,
2013-01-15 05:02:00,35.6,32.7,30.01,NNW,338,0.4,3.8,89,0.00,,,0.00,WUHU216HW,2013-01-15 13:02:00,
2013-01-15 05:07:00,35.6,32.7,30.01,North,0,0.4,3.8,89,0.00,,,0.00,WUHU216HW,2013-01-15 13:07:00,
2013-01-15 05:12:00,35.5,32.2,30.00,North,0,0.4,2.9,88,0.00,,,0.00,WUHU216HW,2013-01-15 13:12:00,
2013-01-15 05:17:00,35.3,32.1,30.00,West,270,1.1,2.9,88,0.00,,,0.00,WUHU216HW,2013-01-15 13:17:00,
2013-01-15 05:22:00,35.3,32.1,30.00,West,270,0.0,1.1,88,0.00,,,0.00,WUHU216HW,2013-01-15 13:22:00,
2013-01-15 05:27:00,35.3,32.3,30.00,NNW,338,0.4,1.1,89,0.00,,,0.00,WUHU216HW,2013-01-15 13:27:00,
2013-01-15 05:32:00,35.3,32.1,30.01,NNW,338,0.0,1.1,88,0.00,,,0.00,WUHU216HW,2013-01-15 13:32:00,
2013-01-15 05:37:00,35.3,32.3,30.01,NE,45,0.0,0.7,89,0.00,,,0.00,WUHU216HW,2013-01-15 13:37:00,
2013-01-15 05:42:00,35.3,32.3,30.01,North,0,0.0,0.7,89,0.00,,,0.00,WUHU216HW,2013-01-15 13:42:00,
2013-01-15 05:47:00,35.3,32.3,30.01,WNW,293,0.2,1.1,89,0.00,,,0.00,WUHU216HW,2013-01-15 13:47:00,
2013-01-15 05:52:00,35.3,32.3,30.01,NE,45,0.0,1.1,89,0.00,,,0.00,WUHU216HW,2013-01-15 13:52:00,
2013-01-15 05:57:00,35.1,31.9,30.01,North,0,0.4,1.1,88,0.00,,,0.00,WUHU216HW,2013-01-15 13:57:00,
2013-01-15 06:02:00,34.9,32.0,30.01,North,0,0.0,0.7,89,0.00,,,0.00,WUHU216HW,2013-01-15 14:02:00,
2013-01-15 06:07:00,34.9,32.0,30.02,North,0,0.0,0.9,89,0.00,,,0.00,WUHU216HW,2013-01-15 14:07:00,
2013-01-15 06:12:00,34.9,32.0,30.01,NE,45,0.0,0.9,89,0.00,,,0.00,WUHU216HW,2013-01-15 14:12:00,
2013-01-15 06:17:00,34.9,32.0,30.02,NNW,338,0.0,0.7,89,0.00,,,0.00,WUHU216HW,2013-01-15 14:17:00,
2013-01-15 06:22:00,34.9,32.0,30.02,NNW,338,0.0,0.4,89,0.00,,,0.00,WUHU216HW,2013-01-15 14:22:00,
2013-01-15 06:27:00,34.9,31.7,30.02,ESE,113,0.0,1.3,88,0.00,,,0.00,WUHU216HW,2013-01-15 14:27:00,
2013-01-15 06:32:00,34.6,31.3,30.02,East,90,0.0,1.3,88,0.00,,,0.00,WUHU216HW,2013-01-15 14:32:00,
2013-01-15 06:37:00,34.4,31.2,30.02,NE,45,0.4,0.7,88,0.00,,,0.00,WUHU216HW,2013-01-15 14:37:00,
2013-01-15 06:42:00,34.4,31.2,30.02,East,90,0.0,1.1,88,0.00,,,0.00,WUHU216HW,2013-01-15 14:42:00,
2013-01-15 06:47:00,34.2,31.0,30.03,North,0,0.0,1.1,88,0.00,,,0.00,WUHU216HW,2013-01-15 14:47:00,
2013-01-15 06:52:00,34.2,31.0,30.03,North,0,0.0,0.4,88,0.00,,,0.00,WUHU216HW,2013-01-15 14:52:00,
2013-01-15 06:57:00,34.2,31.0,30.03,WNW,293,0.0,0.4,88,0.00,,,0.00,WUHU216HW,2013-01-15 14:57:00,
2013-01-15 07:02:00,34.0,30.8,30.03,NW,315,0.0,0.4,88,0.00,,,0.00,WUHU216HW,2013-01-15 15:02:00,
2013-01-15 07:07:00,34.0,30.8,30.03,NW,315,0.0,0.4,88,0.00,,,0.00,WUHU216HW,2013-01-15 15:07:00,
2013-01-15 07:12:00,34.0,30.8,30.03,NW,315,0.2,0.4,88,0.00,,,0.00,WUHU216HW,2013-01-15 15:12:00,
2013-01-15 07:17:00,34.0,30.8,30.03,WNW,293,0.0,0.4,88,0.00,,,0.00,WUHU216HW,2013-01-15 15:17:00,
2013-01-15 07:22:00,33.8,30.6,30.04,WNW,293,0.4,0.4,88,0.00,,,0.00,WUHU216HW,2013-01-15 15:22:00,
2013-01-15 07:27:00,33.8,30.6,30.04,WNW,293,0.0,0.4,88,0.00,,,0.00,WUHU216HW,2013-01-15 15:27:00,
2013-01-15 07:32:00,33.8,30.6,30.05,WSW,248,0.7,0.7,88,0.00,,,0.00,WUHU216HW,2013-01-15 15:32:00,
2013-01-15 07:37:00,34.0,30.8,30.05,SE,135,0.4,0.9,88,0.00,,,0.00,WUHU216HW,2013-01-15 15:37:00,
2013-01-15 07:42:00,34.0,30.8,30.05,NE,45,0.0,0.9,88,0.00,,,0.00,WUHU216HW,2013-01-15 15:42:00,
2013-01-15 07:47:00,34.0,30.8,30.06,SSW,203,0.2,0.7,88,0.00,,,0.00,WUHU216HW,2013-01-15 15:47:00,
2013-01-15 07:52:00,34.0,30.8,30.06,SSW,203,0.0,0.7,88,0.00,,,0.00,WUHU216HW,2013-01-15 15:52:00,
2013-01-15 07:57:00,34.0,30.8,30.06,WNW,293,0.9,0.9,88,0.00,,,0.00,WUHU216HW,2013-01-15 15:57:00,
2013-01-15 08:02:00,33.8,30.6,30.06,NW,315,0.0,1.1,88,0.00,,,0.00,WUHU216HW,2013-01-15 16:02:00,
2013-01-15 08:07:00,33.8,30.9,30.06,WNW,293,0.4,1.1,89,0.00,,,0.00,WUHU216HW,2013-01-15 16:07:00,
2013-01-15 08:12:00,34.0,30.8,30.07,WNW,293,0.0,1.1,88,0.00,,,0.00,WUHU216HW,2013-01-15 16:12:00,
2013-01-15 08:17:00,34.0,31.1,30.07,NW,315,1.1,1.8,89,0.00,,,0.00,WUHU216HW,2013-01-15 16:17:00,
2013-01-15 08:22:00,34.0,31.1,30.07,West,270,1.1,1.8,89,0.00,,,0.00,WUHU216HW,2013-01-15 16:22:00,
2013-01-15 08:27:00,34.0,31.1,30.08,NW,315,1.6,1.6,89,0.00,,,0.00,WUHU216HW,2013-01-15 16:27:00,
2013-01-15 08:32:00,34.0,31.1,30.08,NNW,338,0.9,1.6,89,0.00,,,0.00,WUHU216HW,2013-01-15 16:32:00,
2013-01-15 08:37:00,34.0,30.8,30.08,NNW,338,0.7,1.8,88,0.00,,,0.00,WUHU216HW,2013-01-15 16:37:00,
2013-01-15 08:42:00,34.2,31.0,30.08,NNW,338,0.4,1.8,88,0.00,,,0.00,WUHU216HW,2013-01-15 16:42:00,
2013-01-15 08:47:00,34.2,31.0,30.09,NNW,338,0.4,0.7,88,0.00,,,0.00,WUHU216HW,2013-01-15 16:47:00,
2013-01-15 08:52:00,34.2,31.0,30.09,West,270,0.7,1.8,88,0.00,,,0.00,WUHU216HW,2013-01-15 16:52:00,
2013-01-15 08:57:00,34.0,30.8,30.09,WNW,293,0.4,1.8,88,0.00,,,0.00,WUHU216HW,2013-01-15 16:57:00,
2013-01-15 09:02:00,34.0,30.8,30.09,WNW,293,0.0,1.1,88,0.00,,,0.00,WUHU216HW,2013-01-15 17:02:00,
2013-01-15 09:07:00,34.0,30.8,30.09,WNW,293,0.9,0.9,88,0.00,,,0.00,WUHU216HW,2013-01-15 17:07:00,
2013-01-15 09:12:00,34.2,31.0,30.09,WNW,293,0.2,1.1,88,0.00,,,0.00,WUHU216HW,2013-01-15 17:12:00,
2013-01-15 09:17:00,34.4,31.2,30.09,WNW,293,0.0,1.1,88,0.00,,,0.00,WUHU216HW,2013-01-15 17:17:00,
2013-01-15 09:22:00,34.6,31.0,30.09,WNW,293,0.4,0.4,87,0.00,,,0.00,WUHU216HW,2013-01-15 17:22:00,
2013-01-15 09:27:00,34.6,31.3,30.09,SE,135,0.2,1.1,88,0.00,,,0.00,WUHU216HW,2013-01-15 17:27:00,
2013-01-15 09:32:00,34.7,31.1,30.09,SSE,158,0.0,1.1,87,0.00,,,0.00,WUHU216HW,2013-01-15 17:32:00,
2013-01-15 09:37:00,34.9,31.3,30.09,SSE,158,0.0,0.4,87,0.00,,,0.00,WUHU216HW,2013-01-15 17:37:00,
2013-01-15 09:42:00,34.9,31.3,30.09,SSE,158,0.0,0.4,87,0.00,,,0.00,WUHU216HW,2013-01-15 17:42:00,
2013-01-15 09:47:00,34.9,31.1,30.09,East,90,0.4,0.9,86,0.00,,,0.00,WUHU216HW,2013-01-15 17:47:00,
2013-01-15 09:52:00,34.9,31.1,30.09,East,90,0.0,1.1,86,0.00,,,0.00,WUHU216HW,2013-01-15 17:52:00,
2013-01-15 09:57:00,35.1,31.2,30.09,SE,135,0.0,1.1,86,0.00,,,0.00,WUHU216HW,2013-01-15 17:57:00,
2013-01-15 10:02:00,35.3,31.4,30.09,SE,135,0.4,1.1,86,0.00,,,0.00,WUHU216HW,2013-01-15 18:02:00,
2013-01-15 10:07:00,35.5,31.6,30.09,SE,135,0.2,0.4,86,0.00,,,0.00,WUHU216HW,2013-01-15 18:07:00,
2013-01-15 10:12:00,35.3,31.4,30.09,SE,135,0.4,0.9,86,0.00,,,0.00,WUHU216HW,2013-01-15 18:12:00,
2013-01-15 10:17:00,35.5,31.6,30.10,SE,135,0.9,0.9,86,0.00,,,0.00,WUHU216HW,2013-01-15 18:17:00,
2013-01-15 10:22:00,35.6,31.8,30.10,SE,135,0.2,0.9,86,0.00,,,0.00,WUHU216HW,2013-01-15 18:22:00,
2013-01-15 10:27:00,36.0,32.4,30.10,SE,135,0.4,0.9,87,0.00,,,0.00,WUHU216HW,2013-01-15 18:27:00,
2013-01-15 10:32:00,36.0,32.4,30.10,SE,135,0.2,0.9,87,0.00,,,0.00,WUHU216HW,2013-01-15 18:32:00,
2013-01-15 10:37:00,36.4,32.8,30.10,SSE,158,0.4,1.1,87,0.00,,,0.00,WUHU216HW,2013-01-15 18:37:00,
2013-01-15 10:42:00,36.4,32.5,30.10,ESE,113,1.3,1.8,86,0.00,,,0.00,WUHU216HW,2013-01-15 18:42:00,
2013-01-15 10:47:00,36.4,32.5,30.10,ESE,113,0.0,1.8,86,0.00,,,0.00,WUHU216HW,2013-01-15 18:47:00,
2013-01-15 10:52:00,36.4,32.5,30.10,SSE,158,0.0,1.3,86,0.00,,,0.00,WUHU216HW,2013-01-15 18:52:00,
2013-01-15 10:57:00,36.7,32.9,30.10,SE,135,0.0,0.4,86,0.00,,,0.00,WUHU216HW,2013-01-15 18:57:00,
2013-01-15 11:02:00,36.9,32.8,30.10,WNW,293,0.0,0.9,85,0.00,,,0.00,WUHU216HW,2013-01-15 19:02:00,
2013-01-15 11:07:00,36.7,32.6,30.10,WNW,293,0.9,1.1,85,0.00,,,0.00,WUHU216HW,2013-01-15 19:07:00,
2013-01-15 11:12:00,36.7,32.6,30.10,NW,315,0.7,1.1,85,0.00,,,0.00,WUHU216HW,2013-01-15 19:12:00,
2013-01-15 11:17:00,36.9,33.0,30.10,WSW,248,0.0,1.1,86,0.00,,,0.00,WUHU216HW,2013-01-15 19:17:00,
2013-01-15 11:22:00,37.3,33.4,30.09,SE,135,0.0,1.1,86,0.00,,,0.00,WUHU216HW,2013-01-15 19:22:00,
2013-01-15 11:27:00,37.8,33.7,30.09,North,0,0.0,1.1,85,0.00,,,0.00,WUHU216HW,2013-01-15 19:27:00,
2013-01-15 11:32:00,38.0,34.1,30.09,South,180,0.7,1.8,86,0.00,,,0.00,WUHU216HW,2013-01-15 19:32:00,
2013-01-15 11:37:00,38.3,34.2,30.09,SE,135,0.0,1.8,85,0.00,,,0.00,WUHU216HW,2013-01-15 19:37:00,
2013-01-15 11:42:00,38.5,34.1,30.09,South,180,1.1,1.3,84,0.00,,,0.00,WUHU216HW,2013-01-15 19:42:00,
2013-01-15 11:47:00,38.5,33.5,30.08,SW,225,0.4,2.2,82,0.00,,,0.00,WUHU216HW,2013-01-15 19:47:00,
2013-01-15 11:52:00,38.9,34.2,30.08,SSE,158,0.7,2.2,83,0.00,,,0.00,WUHU216HW,2013-01-15 19:52:00,
2013-01-15 11:57:00,40.1,35.4,30.08,NNW,338,1.1,1.6,83,0.00,,,0.00,WUHU216HW,2013-01-15 19:57:00,
2013-01-15 12:02:00,40.7,35.6,30.08,South,180,1.3,2.5,82,0.00,,,0.00,WUHU216HW,2013-01-15 20:02:00,
2013-01-15 12:07:00,41.0,35.3,30.07,NW,315,0.0,3.1,80,0.00,,,0.00,WUHU216HW,2013-01-15 20:07:00,
2013-01-15 12:12:00,41.4,35.3,30.07,SSW,203,0.4,3.1,79,0.00,,,0.00,WUHU216HW,2013-01-15 20:12:00,
2013-01-15 12:17:00,41.8,35.6,30.07,SSW,203,1.1,2.5,79,0.00,,,0.00,WUHU216HW,2013-01-15 20:17:00,
2013-01-15 12:22:00,42.1,36.0,30.07,SW,225,0.7,2.0,79,0.00,,,0.00,WUHU216HW,2013-01-15 20:22:00,
2013-01-15 12:27:00,42.7,36.3,30.07,SSE,158,0.4,4.3,78,0.00,,,0.00,WUHU216HW,2013-01-15 20:27:00,
2013-01-15 12:32:00,43.4,36.6,30.06,South,180,0.4,4.3,77,0.00,,,0.00,WUHU216HW,2013-01-15 20:32:00,
2013-01-15 12:37:00,43.6,36.5,30.06,ESE,113,2.7,3.4,76,0.00,,,0.00,WUHU216HW,2013-01-15 20:37:00,
2013-01-15 12:42:00,43.2,35.8,30.06,SW,225,1.6,3.4,75,0.00,,,0.00,WUHU216HW,2013-01-15 20:42:00,
2013-01-15 12:47:00,43.4,36.3,30.06,ESE,113,1.3,3.4,76,0.00,,,0.00,WUHU216HW,2013-01-15 20:47:00,
2013-01-15 12:52:00,43.7,36.0,30.06,SW,225,0.2,3.8,74,0.00,,,0.00,WUHU216HW,2013-01-15 20:52:00,
2013-01-15 12:57:00,43.7,36.6,30.06,South,180,5.1,5.1,76,0.00,,,0.00,WUHU216HW,2013-01-15 20:57:00,
2013-01-15 13:02:00,43.6,36.5,30.06,ESE,113,2.5,5.1,76,0.00,,,0.00,WUHU216HW,2013-01-15 21:02:00,
2013-01-15 13:07:00,43.7,36.3,30.06,SW,225,1.1,5.1,75,0.00,,,0.00,WUHU216HW,2013-01-15 21:07:00,
2013-01-15 13:12:00,43.9,36.5,30.06,NNW,338,1.6,2.7,75,0.00,,,0.00,WUHU216HW,2013-01-15 21:12:00,
2013-01-15 13:17:00,44.1,36.6,30.06,South,180,0.4,2.9,75,0.00,,,0.00,WUHU216HW,2013-01-15 21:17:00,
2013-01-15 13:22:00,44.6,37.5,30.06,ESE,113,0.0,4.7,76,0.00,,,0.00,WUHU216HW,2013-01-15 21:22:00,
2013-01-15 13:27:00,44.8,37.4,30.05,NNW,338,0.0,4.7,75,0.00,,,0.00,WUHU216HW,2013-01-15 21:27:00,
2013-01-15 13:32:00,45.0,37.2,30.05,WSW,248,3.1,3.1,74,0.00,,,0.00,WUHU216HW,2013-01-15 21:32:00,
2013-01-15 13:37:00,45.0,37.2,30.05,NW,315,5.4,5.4,74,0.00,,,0.00,WUHU216HW,2013-01-15 21:37:00,
2013-01-15 13:42:00,44.6,36.8,30.05,West,270,1.8,5.4,74,0.00,,,0.00,WUHU216HW,2013-01-15 21:42:00,
2013-01-15 13:47:00,44.6,36.8,30.05,North,0,1.3,5.4,74,0.00,,,0.00,WUHU216HW,2013-01-15 21:47:00,
2013-01-15 13:52:00,44.5,36.6,30.05,NW,315,2.0,4.5,74,0.00,,,0.00,WUHU216HW,2013-01-15 21:52:00,
2013-01-15 13:57:00,44.5,36.6,30.04,NNW,338,0.4,6.3,74,0.00,,,0.00,WUHU216HW,2013-01-15 21:57:00,
2013-01-15 14:02:00,44.6,36.8,30.05,West,270,2.7,6.3,74,0.00,,,0.00,WUHU216HW,2013-01-15 22:02:00,
2013-01-15 14:07:00,44.6,36.8,30.05,NW,315,6.5,9.2,74,0.00,,,0.00,WUHU216HW,2013-01-15 22:07:00,
2013-01-15 14:12:00,44.8,37.0,30.05,SSW,203,0.9,9.2,74,0.00,,,0.00,WUHU216HW,2013-01-15 22:12:00,
2013-01-15 14:17:00,44.8,37.0,30.05,North,0,5.8,6.5,74,0.00,,,0.00,WUHU216HW,2013-01-15 22:17:00,
2013-01-15 14:22:00,44.6,36.8,30.05,NW,315,3.6,8.1,74,0.00,,,0.00,WUHU216HW,2013-01-15 22:22:00,
2013-01-15 14:27:00,44.8,37.0,30.04,West,270,1.8,8.1,74,0.00,,,0.00,WUHU216HW,2013-01-15 22:27:00,
2013-01-15 14:32:00,45.0,37.2,30.05,WNW,293,2.5,4.7,74,0.00,,,0.00,WUHU216HW,2013-01-15 22:32:00,
2013-01-15 14:37:00,45.2,37.4,30.04,North,0,1.1,4.7,74,0.00,,,0.00,WUHU216HW,2013-01-15 22:37:00,
2013-01-15 14:42:00,45.0,37.2,30.04,NW,315,4.3,4.3,74,0.00,,,0.00,WUHU216HW,2013-01-15 22:42:00,
2013-01-15 14:47:00,45.0,37.2,30.05,NNW,338,1.1,4.3,74,0.00,,,0.00,WUHU216HW,2013-01-15 22:47:00,
2013-01-15 14:52:00,45.0,37.5,30.04,WSW,248,1.3,4.3,75,0.00,,,0.00,WUHU216HW,2013-01-15 22:52:00,
2013-01-15 14:57:00,45.0,37.2,30.04,SSE,158,0.4,4.7,74,0.00,,,0.00,WUHU216HW,2013-01-15 22:57:00,
2013-01-15 15:02:00,45.0,37.2,30.04,NW,315,4.0,4.7,74,0.00,,,0.00,WUHU216HW,2013-01-15 23:02:00,
2013-01-15 15:07:00,44.5,37.0,30.04,NNW,338,1.8,4.5,75,0.00,,,0.00,WUHU216HW,2013-01-15 23:07:00,
2013-01-15 15:12:00,44.3,37.2,30.04,West,270,1.8,4.0,76,0.00,,,0.00,WUHU216HW,2013-01-15 23:12:00,
2013-01-15 15:17:00,43.9,36.8,30.04,West,270,5.4,6.5,76,0.00,,,0.00,WUHU216HW,2013-01-15 23:17:00,
2013-01-15 15:22:00,43.6,36.8,30.04,NW,315,3.4,7.6,77,0.00,,,0.00,WUHU216HW,2013-01-15 23:22:00,
2013-01-15 15:27:00,43.2,36.5,30.03,West,270,4.5,8.1,77,0.00,,,0.00,WUHU216HW,2013-01-15 23:27:00,
2013-01-15 15:32:00,43.2,36.5,30.03,NW,315,3.4,8.1,77,0.00,,,0.00,WUHU216HW,2013-01-15 23:32:00,
2013-01-15 15:37:00,43.0,36.6,30.03,NNW,338,4.0,6.0,78,0.00,,,0.00,WUHU216HW,2013-01-15 23:37:00,
2013-01-15 15:42:00,42.8,36.5,30.03,WSW,248,2.5,5.1,78,0.00,,,0.00,WUHU216HW,2013-01-15 23:42:00,
2013-01-15 15:47:00,42.7,36.5,30.03,WNW,293,3.6,5.8,79,0.00,,,0.00,WUHU216HW,2013-01-15 23:47:00,
2013-01-15 15:52:00,42.7,36.5,30.03,NNW,338,1.1,5.8,79,0.00,,,0.00,WUHU216HW,2013-01-15 23:52:00,
2013-01-15 15:57:00,42.5,36.4,30.03,WSW,248,2.7,5.4,79,0.00,,,0.00,WUHU216HW,2013-01-15 23:57:00,
2013-01-15 16:02:00,42.5,36.4,30.04,WNW,293,3.4,6.9,79,0.00,,,0.00,WUHU216HW,2013-01-16 00:02:00,
2013-01-15 16:07:00,42.3,36.2,30.04,WSW,248,1.1,6.9,79,0.00,,,0.00,WUHU216HW,2013-01-16 00:07:00,
2013-01-15 16:12:00,42.1,36.4,30.04,SSW,203,3.1,6.9,80,0.00,,,0.00,WUHU216HW,2013-01-16 00:12:00,
2013-01-15 16:17:00,41.8,36.3,30.04,NNW,338,1.8,6.9,81,0.00,,,0.00,WUHU216HW,2013-01-16 00:17:00,
2013-01-15 16:22:00,41.4,35.9,30.04,ESE,113,0.7,6.3,81,0.00,,,0.00,WUHU216HW,2013-01-16 00:22:00,
2013-01-15 16:27:00,41.2,35.7,30.03,NNW,338,4.0,4.7,81,0.00,,,0.00,WUHU216HW,2013-01-16 00:27:00,
2013-01-15 16:32:00,41.0,35.9,30.04,NNW,338,0.2,4.0,82,0.00,,,0.00,WUHU216HW,2013-01-16 00:32:00,
2013-01-15 16:37:00,41.0,35.9,30.04,NNW,338,1.6,5.1,82,0.00,,,0.00,WUHU216HW,2013-01-16 00:37:00,
2013-01-15 16:42:00,40.9,35.7,30.04,ENE,68,0.4,5.1,82,0.00,,,0.00,WUHU216HW,2013-01-16 00:42:00,
2013-01-15 16:47:00,40.7,35.6,30.04,WNW,293,2.0,2.5,82,0.00,,,0.00,WUHU216HW,2013-01-16 00:47:00,
2013-01-15 16:52:00,40.5,35.7,30.04,SW,225,1.1,3.8,83,0.00,,,0.00,WUHU216HW,2013-01-16 00:52:00,
2013-01-15 16:57:00,40.3,35.2,30.04,SW,225,1.3,3.8,82,0.00,,,0.00,WUHU216HW,2013-01-16 00:57:00,
2013-01-15 17:02:00,40.0,35.2,30.04,WSW,248,0.7,6.9,83,0.00,,,0.00,WUHU216HW,2013-01-16 01:02:00,
2013-01-15 17:07:00,39.8,35.3,30.04,West,270,3.6,6.9,84,0.00,,,0.00,WUHU216HW,2013-01-16 01:07:00,
2013-01-15 17:12:00,39.6,35.2,30.04,West,270,2.5,6.3,84,0.00,,,0.00,WUHU216HW,2013-01-16 01:12:00,
2013-01-15 17:17:00,39.4,35.0,30.05,WSW,248,1.8,5.8,84,0.00,,,0.00,WUHU216HW,2013-01-16 01:17:00,
2013-01-15 17:22:00,39.2,34.8,30.05,WSW,248,4.7,6.3,84,0.00,,,0.00,WUHU216HW,2013-01-16 01:22:00,
2013-01-15 17:27:00,39.2,34.8,30.05,West,270,2.9,6.9,84,0.00,,,0.00,WUHU216HW,2013-01-16 01:27:00,
2013-01-15 17:32:00,39.1,34.7,30.05,NW,315,1.6,6.9,84,0.00,,,0.00,WUHU216HW,2013-01-16 01:32:00,
2013-01-15 17:37:00,38.9,34.7,30.05,West,270,1.6,6.7,85,0.00,,,0.00,WUHU216HW,2013-01-16 01:37:00,
2013-01-15 17:42:00,38.7,34.3,30.05,North,0,0.0,6.7,84,0.00,,,0.00,WUHU216HW,2013-01-16 01:42:00,
2013-01-15 17:47:00,38.5,34.4,30.05,East,90,1.6,2.7,85,0.00,,,0.00,WUHU216HW,2013-01-16 01:47:00,
2013-01-15 17:52:00,38.5,34.7,30.05,SSW,203,0.7,4.0,86,0.00,,,0.00,WUHU216HW,2013-01-16 01:52:00,
2013-01-15 17:57:00,38.3,34.5,30.06,WSW,248,2.0,4.0,86,0.00,,,0.00,WUHU216HW,2013-01-16 01:57:00,
2013-01-15 18:02:00,38.3,34.5,30.06,WNW,293,0.2,3.6,86,0.00,,,0.00,WUHU216HW,2013-01-16 02:02:00,
2013-01-15 18:07:00,38.2,34.0,30.06,SW,225,1.6,3.1,85,0.00,,,0.00,WUHU216HW,2013-01-16 02:07:00,
2013-01-15 18:12:00,37.8,33.9,30.06,NNW,338,0.4,3.8,86,0.00,,,0.00,WUHU216HW,2013-01-16 02:12:00,
2013-01-15 18:17:00,37.8,33.9,30.06,NW,315,0.0,3.8,86,0.00,,,0.00,WUHU216HW,2013-01-16 02:17:00,
2013-01-15 18:22:00,37.8,34.2,30.06,WNW,293,1.1,4.9,87,0.00,,,0.00,WUHU216HW,2013-01-16 02:22:00,
2013-01-15 18:27:00,37.8,33.9,30.07,NE,45,0.4,4.9,86,0.00,,,0.00,WUHU216HW,2013-01-16 02:27:00,
2013-01-15 18:32:00,37.8,34.2,30.07,NNW,338,1.1,2.9,87,0.00,,,0.00,WUHU216HW,2013-01-16 02:32:00,
2013-01-15 18:37:00,38.0,34.4,30.07,WNW,293,3.1,3.4,87,0.00,,,0.00,WUHU216HW,2013-01-16 02:37:00,
2013-01-15 18:42:00,38.0,34.4,30.07,South,180,0.2,3.4,87,0.00,,,0.00,WUHU216HW,2013-01-16 02:42:00,
2013-01-15 18:47:00,38.0,34.4,30.07,NE,45,0.0,3.1,87,0.00,,,0.00,WUHU216HW,2013-01-16 02:47:00,
2013-01-15 18:52:00,38.0,34.4,30.08,NW,315,0.0,1.6,87,0.00,,,0.00,WUHU216HW,2013-01-16 02:52:00,
2013-01-15 18:57:00,38.0,34.1,30.08,ENE,68,0.0,1.6,86,0.00,,,0.00,WUHU216HW,2013-01-16 02:57:00,
2013-01-15 19:02:00,37.8,33.9,30.08,ESE,113,0.7,1.1,86,0.00,,,0.00,WUHU216HW,2013-01-16 03:02:00,
2013-01-15 19:07:00,37.8,34.2,30.08,ESE,113,1.3,2.0,87,0.00,,,0.00,WUHU216HW,2013-01-16 03:07:00,
2013-01-15 19:12:00,37.8,34.2,30.08,NE,45,0.2,2.0,87,0.00,,,0.00,WUHU216HW,2013-01-16 03:12:00,
2013-01-15 19:17:00,37.8,34.2,30.08,East,90,0.0,1.8,87,0.00,,,0.00,WUHU216HW,2013-01-16 03:17:00,
2013-01-15 19:22:00,37.8,34.2,30.08,East,90,0.0,1.1,87,0.00,,,0.00,WUHU216HW,2013-01-16 03:22:00,
2013-01-15 19:27:00,37.8,34.2,30.08,SSE,158,0.4,0.4,87,0.00,,,0.00,WUHU216HW,2013-01-16 03:27:00,
2013-01-15 19:32:00,37.8,34.2,30.08,ENE,68,0.2,0.4,87,0.00,,,0.00,WUHU216HW,2013-01-16 03:32:00,
2013-01-15 19:37:00,37.8,34.2,30.08,South,180,0.0,2.0,87,0.00,,,0.00,WUHU216HW,2013-01-16 03:37:00,
2013-01-15 19:42:00,37.8,34.2,30.08,ESE,113,0.0,2.0,87,0.00,,,0.00,WUHU216HW,2013-01-16 03:42:00,
2013-01-15 19:47:00,37.8,34.2,30.09,East,90,0.9,0.9,87,0.00,,,0.00,WUHU216HW,2013-01-16 03:47:00,
2013-01-15 19:52:00,37.8,34.2,30.08,East,90,0.0,0.9,87,0.00,,,0.00,WUHU216HW,2013-01-16 03:52:00,
2013-01-15 19:57:00,37.8,34.2,30.09,East,90,0.4,0.9,87,0.00,,,0.00,WUHU216HW,2013-01-16 03:57:00,
2013-01-15 20:02:00,37.8,34.2,30.08,ESE,113,0.7,0.9,87,0.00,,,0.00,WUHU216HW,2013-01-16 04:02:00,
2013-01-15 20:07:00,37.8,34.2,30.08,East,90,0.4,1.1,87,0.00,,,0.00,WUHU216HW,2013-01-16 04:07:00,
2013-01-15 20:12:00,37.8,34.2,30.09,ESE,113,0.0,1.1,87,0.00,,,0.00,WUHU216HW,2013-01-16 04:12:00,
2013-01-15 20:17:00,37.8,34.2,30.08,East,90,0.4,1.1,87,0.00,,,0.00,WUHU216HW,2013-01-16 04:17:00,
2013-01-15 20:22:00,37.8,34.2,30.08,WNW,293,0.2,3.8,87,0.00,,,0.00,WUHU216HW,2013-01-16 04:22:00,
2013-01-15 20:27:00,37.8,34.2,30.08,WNW,293,0.0,3.8,87,0.00,,,0.00,WUHU216HW,2013-01-16 04:27:00,
2013-01-15 20:32:00,37.8,34.2,30.08,East,90,0.9,1.3,87,0.00,,,0.00,WUHU216HW,2013-01-16 04:32:00,
2013-01-15 20:37:00,37.6,34.0,30.09,ESE,113,0.4,1.3,87,0.00,,,0.00,WUHU216HW,2013-01-16 04:37:00,
2013-01-15 20:42:00,37.6,34.0,30.09,ESE,113,0.0,1.1,87,0.00,,,0.00,WUHU216HW,2013-01-16 04:42:00,
2013-01-15 20:47:00,37.6,34.0,30.09,ESE,113,0.0,0.4,87,0.00,,,0.00,WUHU216HW,2013-01-16 04:47:00,
2013-01-15 20:52:00,37.6,34.0,30.09,ESE,113,0.0,0.2,87,0.00,,,0.00,WUHU216HW,2013-01-16 04:52:00,
2013-01-15 20:57:00,37.8,34.2,30.09,East,90,0.0,0.0,87,0.00,,,0.00,WUHU216HW,2013-01-16 04:57:00,
2013-01-15 21:00:00,37.6,34.0,30.09,East,90,0.0,0.0,87,0.00,,,0.00,WUHU216HW,2013-01-16 05:00:00,
2013-01-15 21:01:00,37.8,34.2,30.09,SSW,203,0.2,0.2,87,0.00,,,0.00,WUHU216HW,2013-01-16 05:01:00,
2013-01-15 21:06:00,37.6,34.0,30.09,NNW,338,0.0,0.9,87,0.00,,,0.00,WUHU216HW,2013-01-16 05:06:00,
2013-01-15 21:11:00,37.6,34.0,30.09,NNW,338,0.0,0.9,87,0.00,,,0.00,WUHU216HW,2013-01-16 05:11:00,
2013-01-15 21:16:00,37.6,34.0,30.09,NW,315,0.2,0.4,87,0.00,,,0.00,WUHU216HW,2013-01-16 05:16:00,
2013-01-15 21:21:00,37.6,34.0,30.09,NE,45,0.0,0.4,87,0.00,,,0.00,WUHU216HW,2013-01-16 05:21:00,
2013-01-15 21:26:00,37.6,34.0,30.09,NE,45,0.0,0.4,87,0.00,,,0.00,WUHU216HW,2013-01-16 05:26:00,
2013-01-15 21:31:00,37.6,34.0,30.09,NE,45,0.4,0.4,87,0.00,,,0.00,WUHU216HW,2013-01-16 05:31:00,
2013-01-15 21:36:00,37.6,34.0,30.09,East,90,0.0,0.7,87,0.00,,,0.00,WUHU216HW,2013-01-16 05:36:00,
2013-01-15 21:41:00,37.6,34.0,30.09,South,180,0.0,0.7,87,0.00,,,0.00,WUHU216HW,2013-01-16 05:41:00,
2013-01-15 21:46:00,37.6,34.0,30.09,ESE,113,0.9,0.9,87,0.00,,,0.00,WUHU216HW,2013-01-16 05:46:00,
2013-01-15 21:51:00,37.4,34.2,30.09,NNW,338,0.7,1.1,88,0.00,,,0.00,WUHU216HW,2013-01-16 05:51:00,
2013-01-15 21:56:00,37.3,33.7,30.08,West,270,2.5,2.5,87,0.00,,,0.00,WUHU216HW,2013-01-16 05:56:00,
2013-01-15 22:01:00,37.3,33.7,30.08,NW,315,1.8,2.5,87,0.00,,,0.00,WUHU216HW,2013-01-16 06:01:00,
2013-01-15 22:06:00,37.1,33.9,30.08,NW,315,0.0,2.5,88,0.00,,,0.00,WUHU216HW,2013-01-16 06:06:00,
2013-01-15 22:11:00,37.1,33.9,30.08,NW,315,1.1,3.6,88,0.00,,,0.00,WUHU216HW,2013-01-16 06:11:00,
2013-01-15 22:16:00,37.1,33.5,30.08,SSW,203,0.7,3.6,87,0.00,,,0.00,WUHU216HW,2013-01-16 06:16:00,
2013-01-15 22:21:00,37.1,33.5,30.08,West,270,0.7,1.8,87,0.00,,,0.00,WUHU216HW,2013-01-16 06:21:00,
2013-01-15 22:26:00,37.1,33.9,30.08,NW,315,1.1,1.3,88,0.00,,,0.00,WUHU216HW,2013-01-16 06:26:00,
2013-01-15 22:31:00,37.1,33.9,30.08,NNW,338,0.0,1.3,88,0.00,,,0.00,WUHU216HW,2013-01-16 06:31:00,
2013-01-15 22:36:00,37.1,33.9,30.08,NW,315,0.9,1.1,88,0.00,,,0.00,WUHU216HW,2013-01-16 06:36:00,
2013-01-15 22:41:00,37.1,33.5,30.08,SSE,158,0.0,0.9,87,0.00,,,0.00,WUHU216HW,2013-01-16 06:41:00,
2013-01-15 22:46:00,37.1,33.9,30.08,NNW,338,2.5,2.5,88,0.00,,,0.00,WUHU216HW,2013-01-16 06:46:00,
2013-01-15 22:51:00,37.1,33.9,30.08,West,270,0.4,2.5,88,0.00,,,0.00,WUHU216HW,2013-01-16 06:51:00,
2013-01-15 22:56:00,37.1,33.9,30.08,WNW,293,0.9,2.5,88,0.00,,,0.00,WUHU216HW,2013-01-16 06:56:00,
2013-01-15 23:01:00,36.9,33.3,30.08,SSW,203,0.9,2.5,87,0.00,,,0.00,WUHU216HW,2013-01-16 07:01:00,
2013-01-15 23:06:00,36.7,33.5,30.07,SSW,203,0.2,1.1,88,0.00,,,0.00,WUHU216HW,2013-01-16 07:06:00,
2013-01-15 23:11:00,36.4,32.8,30.07,West,270,0.4,1.8,87,0.00,,,0.00,WUHU216HW,2013-01-16 07:11:00,
2013-01-15 23:16:00,36.5,32.9,30.07,West,270,0.2,1.8,87,0.00,,,0.00,WUHU216HW,2013-01-16 07:16:00,
2013-01-15 23:21:00,36.5,33.3,30.07,West,270,0.2,1.1,88,0.00,,,0.00,WUHU216HW,2013-01-16 07:21:00,
2013-01-15 23:26:00,36.7,33.5,30.07,NNW,338,0.2,1.1,88,0.00,,,0.00,WUHU216HW,2013-01-16 07:26:00,
2013-01-15 23:31:00,36.7,33.5,30.07,NNW,338,2.9,2.9,88,0.00,,,0.00,WUHU216HW,2013-01-16 07:31:00,
2013-01-15 23:36:00,36.7,33.5,30.07,WNW,293,1.3,2.9,88,0.00,,,0.00,WUHU216HW,2013-01-16 07:36:00,
2013-01-15 23:41:00,36.7,33.5,30.07,NW,315,0.2,2.9,88,0.00,,,0.00,WUHU216HW,2013-01-16 07:41:00,
2013-01-15 23:46:00,36.7,33.5,30.07,SW,225,0.4,2.5,88,0.00,,,0.00,WUHU216HW,2013-01-16 07:46:00,
2013-01-15 23:51:00,36.7,33.5,30.07,SE,135,0.9,1.8,88,0.00,,,0.00,WUHU216HW,2013-01-16 07:51:00,
2013-01-15 23:56:00,36.5,33.3,30.07,SE,135,0.0,1.8,88,0.00,,,0.00,WUHU216HW,2013-01-16 07:56:00,